Location: Maiden
(35.5760°N, 81.2120°W)
Time: 21:12:38
(UTC-04:00)

Vanguard 2 - Pass Details

Date: 06 August 2021
Orbit: 552 x 2937 km, 32.9° (Epoch: 24 September)

Event Time Altitude Azimuth Distance (km) Brightness Sun altitude
Exits shadow 03:44:07 12° 104° (ESE) 1,714 9.5 -29.0°
Drops below altitude 10° 03:44:21 10° 102° (ESE) 1,796 9.7 -29.0°
Sets 03:46:49 0° 89° (E) 2,739 10.9 -28.7°
